CAPE
91 91 106 86 71 37 37 2 37 9 5 5 6 0 0 0 0 1 14 0 6 5 0 0 0 0 0 0 0 0 0 0 0 0 0 0 0 0 0 0 0 0 0 1 1 6 0 0 0 0 0 0 0 0
79 78 86 99 77 56 10 7 27 7 10 7 6 5 0 0 0 0 6 0 0 6 1 0 0 0 0 0 0 0 0 0 0 0 0 0 0 0 0 0 0 0 0 0 0 0 0 0 0 0 0 0 0 0
92 79 87 115 79 66 44 24 11 12 7 7 9 6 4 0 0 0 2 3 0 0 0 1 1 0 0 0 0 0 0 0 0 0 0 0 0 0 0 0 0 0 0 0 0 0 0 0 0 0 0 0 0 0
131 30 55 86 82 66 45 10 22 13 6 19 23 9 2 2 0 0 0 0 0 0 0 0 0 0 0 0 0 0 0 0 0 0 0 0 0 0 3 0 0 0 0 0 0 0 0 0 0 0 0 0 0 0
121 44 36 56 73 58 47 26 19 22 5 17 16 8 7 2 1 0 0 0 0 0 0 1 0 0 0 0 1 0 0 0 0 0 0 0 2 2 4 2 3 0 0 0 0 0 0 0 0 0 0 0 0 0
121 84 39 46 61 68 55 31 26 12 5 12 7 4 10 3 1 0 0 0 0 0 0 0 1 0 1 1 1 1 0 1 0 0 1 1 3 1 2 3 0 0 0 0 0 0 0 0 0 0 0 0 0 0
123 63 33 29 64 57 44 32 37 5 1 23 21 16 4 1 0 0 0 1 1 0 0 0 1 1 1 1 3 3 3 2 1 1 5 9 3 7 8 0 0 0 0 0 0 0 0 0 0 0 0 0 0 0
127 75 61 17 62 81 54 31 25 4 24 12 16 6 3 4 2 0 1 2 0 0 0 0 1 3 6 5 2 8 10 7 5 9 3 2 2 4 2 0 0 0 0 0 0 0 0 0 0 0 0 0 0 0
123 75 74 29 70 84 63 57 30 18 31 30 11 1 0 0 0 0 1 2 0 0 0 2 1 2 2 5 5 3 7 4 2 6 2 0 2 1 0 0 0 0 0 0 0 0 0 0 0 0 0 0 0 0
108 68 79 64 86 94 57 42 19 36 45 10 0 0 3 3 3 0 0 0 0 0 0 2 2 2 2 5 5 2 3 4 3 1 0 3 0 0 0 0 0 0 0 0 0 0 0 0 0 0 0 0 0 0
75 42 61 73 96 83 58 36 28 52 5 0 0 2 2 1 3 2 1 1 1 3 3 3 3 1 2 4 2 4 3 2 1 0 0 1 0 0 0 0 0 0 0 0 0 0 0 0 0 0 0 0 0 0
49 33 57 75 87 128 59 49 52 1 3 0 0 1 0 0 1 2 1 1 1 2 3 3 2 4 3 6 2 3 2 1 2 0 1 0 0 0 0 0 0 0 0 0 0 0 0 0 0 0 0 0 0 0
37 34 54 70 78 126 64 35 3 2 0 0 0 0 2 2 7 5 1 1 1 1 1 2 1 2 3 3 2 1 1 2 0 2 0 0 0 0 0 0 0 0 0 0 0 0 0 0 0 0 0 0 0 0
26 32 58 60 66 109 77 25 17 10 1 0 2 1 2 0 2 1 0 1 1 3 2 1 2 1 2 1 2 1 0 0 1 0 0 0 0 0 0 0 0 0 0 0 0 0 0 0 0 0 0 0 0 0
33 49 60 60 97 112 28 30 14 0 0 3 3 3 1 0 0 0 1 0 3 1 0 0 1 1 2 0 1 1 0 0 0 0 0 0 0 0 0 0 0 0 0 0 0 0 0 0 0 0 0 0 0 0
59 66 32 31 111 93 18 0 0 0 1 2 0 0 0 0 1 1 1 2 1 1 0 0 1 1 0 0 0 0 1 0 0 1 0 1 0 0 0 0 0 0 0 0 0 0 0 0 0 0 0 0 0 0
79 44 56 94 130 12 0 0 0 0 1 1 1 0 0 0 1 0 0 1 0 0 0 0 0 0 0 0 0 0 0 0 0 0 0 0 0 0 0 0 0 0 0 0 0 0 0 0 0 0 0 0 0 0
33 63 58 4 0 0 0 2 1 0 0 0 1 1 0 0 1 0 2 0 0 0 0 0 0 0 0 0 0 0 0 0 1 0 0 0 0 0 0 0 0 0 0 0 0 0 0 0 0 0 0 0 0 0
94 12 2 1 0 1 0 0 1 0 1 2 2 1 1 0 1 1 1 0 0 0 0 0 0 0 0 0 0 0 0 0 0 0 0 0 0 0 0 0 0 0 0 0 0 0 0 0 0 0 0 0 0 0
14 19 5 2 0 1 0 0 1 0 1 1 2 1 1 1 0 2 1 1 1 2 0 0 0 0 0 0 0 1 1 0 0 0 0 0 0 0 0 0 0 0 0 0 0 0 0 0 0 0 0 0 1 0
0 3 3 0 0 0 0 0 0 1 1 0 1 1 0 0 0 1 0 0 1 0 1 0 0 0 0 0 0 0 0 0 0 0 0 0 0 0 0 0 0 0 0 0 0 0 0 0 0 0 0 0 0 0
3 6 1 2 0 0 0 0 0 0 0 0 0 0 0 0 0 0 0 0 0 0 0 0 0 0 0 0 0 0 0 0 0 0 0 0 0 0 0 0 0 0 0 0 0 0 0 0 0 0 0 0 0 0
3 0 0 0 0 0 0 0 0 0 0 0 0 0 0 0 0 0 0 0 0 0 0 0 0 0 0 0 0 0 0 0 0 0 0 0 0 0 0 0 0 0 0 0 0 0 0 0 0 0 0 0 0 0
0 0 0 0 0 0 0 0 0 0 0 0 0 0 0 0 0 0 0 0 0 1 0 0 1 0 0 0 0 0 0 0 0 0 0 0 0 0 0 0 0 0 0 0 0 0 0 0 0 0 0 0 0 0
0 0 0 0 0 0 0 0 0 0 0 0 0 0 0 0 0 0 0 0 1 1 2 2 1 0 0 0 0 0 0 0 0 0 0 0 0 0 0 0 0 0 0 0 0 0 0 0 0 0 0 0 0 0
0 0 0 0 0 0 0 0 0 0 0 0 0 0 0 0 0 0 0 0 0 0 0 0 0 0 0 0 0 0 0 0 0 0 0 0 0 0 0 0 0 0 0 0 0 0 0 0 0 0 0 0 1 0
0 0 0 0 0 0 0 0 0 0 0 0 0 0 0 0 0 0 0 0 0 0 0 0 0 0 0 0 0 0 0 0 0 0 0 0 0 0 0 0 0 0 0 0 0 0 0 0 0 0 0 0 0 0
0 0 0 0 0 0 0 0 0 0 0 0 0 0 0 0 0 0 0 0 0 0 0 0 0 0 0 0 0 0 0 0 0 0 0 0 0 0 0 0 0 0 0 0 0 0 0 0 0 0 0 0 0 0
0 0 0 0 0 0 0 0 0 0 0 0 0 0 0 0 0 0 0 0 0 0 0 0 0 0 0 0 0 0 0 0 0 0 0 0 0 0 0 0 0 0 0 0 0 3 1 0 0 0 0 0 0 0
0 0 0 0 0 0 0 0 0 0 0 0 0 0 0 0 0 0 0 0 0 0 0 0 0 0 0 0 0 0 0 0 0 0 0 0 0 0 0 0 0 0 0 0 0 0 1 0 6 0 0 0 0 0
0 0 0 0 0 0 0 0 0 0 0 0 0 0 0 0 0 0 0 0 0 0 0 0 0 0 0 0 0 0 0 0 0 0 0 0 0 0 0 0 0 0 0 0 0 0 0 0 0 0 0 0 0 0
0 0 0 0 0 0 0 0 0 0 0 0 0 0 0 0 0 0 0 0 0 0 0 0 0 0 0 0 0 0 0 0 0 0 0 0 0 0 0 0 0 0 0 0 0 0 0 0 0 0 0 0 0 0
0 0 0 0 0 0 0 0 0 0 0 0 0 0 0 0 0 0 0 0 0 0 0 0 0 0 0 0 0 0 0 0 0 4 6 9 10 7 0 0 0 0 0 0 0 0 0 0 0 0 0 0 0 0
CIN
0 0 0 0 -6 -2 0 -9 0 0 0 0 0 0 0 0 0 -1 0 0 -1 0 0 0 0 0 0 0 0 0 0 0 0 0 0 0 0 0 0 0 0 0 0 0 0 0 0 0 0 0 0 0 0 0
0 0 0 0 -1 0 -2 -5 0 -2 0 0 0 0 0 0 0 0 -1 0 0 -3 0 0 0 0 0 0 0 0 -1 0 0 0 0 0 0 0 0 0 0 0 0 0 0 0 0 0 0 0 0 0 0 0
-1 0 0 0 0 -4 0 0 -2 -1 0 0 0 0 0 0 0 0 -3 0 0 0 -1 0 0 0 0 0 0 0 0 0 0 0 0 0 0 0 0 0 0 0 0 0 0 0 0 0 0 0 0 0 0 0
-1 0 -1 0 -1 -5 -1 -5 0 -1 0 0 0 0 0 0 0 0 0 0 -2 0 0 0 0 0 0 0 0 0 0 0 0 0 0 0 0 0 0 0 0 0 0 0 0 0 0 0 0 0 0 0 0 0
0 -1 0 0 -1 -1 -2 -2 0 0 0 0 -4 -4 0 0 0 0 0 0 0 0 0 0 0 0 0 0 0 0 0 0 0 0 0 0 0 0 0 0 0 0 0 0 0 0 0 0 0 0 0 0 0 0
0 0 -2 0 0 -2 -1 -2 0 0 -4 -1 -5 0 -5 0 0 0 0 0 0 0 0 0 0 0 0 0 0 0 0 0 0 0 0 0 0 0 0 0 0 0 0 0 0 0 0 0 0 0 0 0 0 0
0 -4 -4 0 -1 -1 -2 -3 0 -5 0 0 0 0 -4 0 0 0 0 0 0 0 0 0 0 0 0 0 0 0 0 0 0 0 0 0 0 0 0 0 0 0 0 0 0 0 0 0 0 0 0 0 0 0
0 -2 -5 0 -2 -1 -6 -5 0 -9 0 0 0 -6 0 0 0 0 0 0 0 0 0 0 0 0 0 0 0 0 0 0 0 0 0 0 0 0 0 0 0 0 0 0 0 0 0 0 0 0 0 0 0 0
0 -7 -8 0 -3 -4 -5 -1 0 -3 0 -1 0 -2 0 0 0 0 0 0 0 0 0 0 0 0 0 0 0 0 0 0 0 0 0 0 0 0 0 0 0 0 0 0 0 0 0 0 0 0 0 0 0 0
0 0 0 0 -2 -7 -7 0 0 -1 0 -1 0 -1 0 0 0 0 -5 0 0 0 0 0 0 0 0 0 0 0 0 0 0 0 0 0 0 0 0 0 0 0 0 0 0 0 0 0 0 0 0 0 0 0
0 0 -3 -1 -1 -3 -24 0 0 0 -5 0 0 0 0 0 0 0 0 0 0 0 0 0 0 0 0 0 0 0 0 0 0 0 0 0 0 0 0 0 0 0 0 0 0 0 0 0 0 0 0 0 0 0
0 -1 -1 -2 -2 -3 0 0 0 -1 -3 0 0 0 0 0 0 0 0 0 0 0 0 0 0 0 0 0 0 0 0 0 0 0 0 0 0 0 0 0 0 0 0 0 0 0 0 0 0 0 0 0 0 0
0 0 0 -3 -2 -1 -1 0 -5 -4 0 0 0 0 0 0 0 0 0 0 0 0 0 0 0 0 0 0 0 0 0 0 0 0 0 0 0 0 0 0 0 0 0 0 0 0 0 0 0 0 0 0 0 0
-3 0 0 -3 -5 0 -4 0 0 0 0 0 0 0 0 0 0 0 0 0 0 0 0 0 0 0 0 0 0 0 0 0 0 0 0 0 0 0 0 0 0 0 0 0 0 0 0 0 0 0 0 0 0 0
-1 0 -1 -2 -2 0 0 0 0 0 0 0 0 0 0 0 0 0 0 0 0 0 0 0 0 0 0 0 0 0 0 0 0 0 0 0 0 0 0 0 0 0 0 0 0 0 0 0 0 0 0 0 0 0
0 -1 -1 -4 -2 -2 0 0 0 0 0 0 0 0 0 0 0 0 0 0 0 0 0 0 0 0 0 0 0 0 0 0 0 0 0 0 0 0 0 0 0 0 0 0 0 0 0 0 0 0 0 0 0 0
-1 -1 -9 -4 -4 0 0 0 0 0 0 0 0 0 0 0 0 0 0 0 0 0 0 0 0 0 0 0 0 0 0 0 0 0 0 0 0 0 0 0 0 0 0 0 0 0 0 0 0 0 0 0 0 0
-3 -8 -14 0 0 0 0 0 0 0 0 0 0 0 0 0 0 0 0 0 0 0 0 0 0 0 0 0 0 0 0 0 0 0 0 0 0 0 0 0 0 0 0 0 0 0 0 0 0 0 0 0 0 0
-2 -4 0 0 0 0 0 0 0 0 0 0 0 0 0 0 0 0 0 0 0 0 0 0 0 0 0 0 0 0 0 0 0 0 0 0 0 0 0 0 0 0 0 0 0 0 0 0 0 0 0 0 0 0
0 0 0 0 0 0 0 0 0 0 0 0 0 0 0 0 0 0 0 0 0 0 0 0 0 0 0 0 0 0 0 0 0 0 0 0 0 0 0 0 0 0 0 0 0 0 0 0 0 0 0 0 0 0
0 0 0 0 0 0 0 0 0 0 0 0 0 0 0 0 0 0 0 0 0 0 0 0 0 0 0 0 0 0 0 0 0 0 0 0 0 0 0 0 0 0 0 0 0 0 0 0 0 0 0 0 0 0
0 0 0 0 0 0 0 0 0 0 0 0 0 0 0 0 0 0 0 0 0 0 0 0 0 0 0 0 0 0 0 0 0 0 0 0 0 0 0 0 0 0 0 0 0 0 0 0 0 0 0 0 0 0
0 0 0 0 0 0 0 0 0 0 0 0 0 0 0 0 0 0 0 0 0 0 0 0 0 0 0 0 0 0 0 0 0 0 0 0 0 0 0 0 0 0 0 0 0 0 0 0 0 0 0 0 0 0
0 0 0 0 0 0 0 0 0 0 0 0 0 0 0 0 0 0 0 0 0 0 0 0 0 0 0 0 0 0 0 0 0 0 0 0 0 0 0 0 0 0 0 0 0 0 0 0 0 0 0 0 0 0
0 0 0 0 0 0 0 0 0 0 0 0 0 0 0 0 0 0 0 0 0 0 0 0 0 0 0 0 0 0 0 0 0 0 0 0 0 0 0 0 0 0 0 0 0 0 0 0 0 0 0 0 0 0
0 0 0 0 0 0 0 0 0 0 0 0 0 0 0 0 0 0 0 0 0 0 0 0 0 0 0 0 0 0 0 0 0 0 0 0 0 0 0 0 0 0 0 0 0 0 0 0 0 0 0 0 0 0
0 0 0 0 0 0 0 0 0 0 0 0 0 0 0 0 0 0 0 0 0 0 0 0 0 0 0 0 0 0 0 0 0 0 0 0 0 0 0 0 0 0 0 0 0 0 0 0 0 0 0 0 0 0
0 0 0 0 0 0 0 0 0 0 0 0 0 0 0 0 0 0 0 0 0 0 0 0 0 0 0 0 0 0 0 0 0 0 0 0 0 0 0 0 0 0 0 0 0 0 0 0 0 0 0 0 0 0
0 0 0 0 0 0 0 0 0 0 0 0 0 0 0 0 0 0 0 0 0 0 0 0 0 0 0 0 0 0 0 0 0 0 0 0 0 0 0 0 0 0 0 0 0 0 0 0 0 0 0 0 0 0
0 0 0 0 0 0 0 0 0 0 0 0 0 0 0 0 0 0 0 0 0 0 0 0 0 0 0 0 0 0 0 0 0 0 0 0 0 0 0 0 0 0 0 0 0 0 0 0 0 0 0 0 0 0
0 0 0 0 0 0 0 0 0 0 0 0 0 0 0 0 0 0 0 0 0 0 0 0 0 0 0 0 0 0 0 0 0 0 0 0 0 0 0 0 0 0 0 0 0 0 0 0 0 0 0 0 0 0
0 0 0 0 0 0 0 0 0 0 0 0 0 0 0 0 0 0 0 0 0 0 0 0 0 0 0 0 0 0 0 0 0 0 0 0 0 0 0 0 0 0 0 0 0 0 0 0 0 0 0 0 0 0
0 0 0 0 0 0 0 0 0 0 0 0 0 0 0 0 0 0 0 0 0 0 0 0 0 0 0 0 0 0 0 0 0 0 0 0 0 0 0 0 0 0 0 0 0 0 0 0 0 0 0 0 0 0
Wind_Speed
22 22 22 21 18 14 16 17 17 15 14 16 18 25 26 25 23 12 4 8 4 4 3 6 5 5 5 6 6 8 6 1 3 6 4 5 5 7 3 5 8 10 9 7 6 5 12 13 8 6 3 3 3 2
23 21 21 22 20 16 13 15 17 15 15 15 15 17 27 28 27 20 5 6 4 2 2 4 4 3 3 4 3 9 1 6 6 3 3 3 3 3 3 5 7 7 8 5 11 6 4 15 5 4 3 2 2 1
22 21 20 20 20 17 12 14 18 15 15 15 15 15 10 30 32 26 7 6 5 3 2 2 4 1 1 4 3 5 2 4 6 2 3 2 5 4 6 7 8 7 8 5 2 6 9 6 4 2 2 4 5 4
21 19 20 19 18 18 12 10 12 12 14 16 12 12 11 10 31 30 6 7 8 3 5 3 1 1 3 3 2 2 4 5 5 2 2 3 3 5 4 2 8 2 9 9 13 11 6 4 4 7 6 6 5 3
20 18 18 18 17 17 13 12 13 12 12 13 10 9 10 2 1 16 3 5 9 6 4 2 1 1 2 2 4 4 7 6 3 3 3 4 3 3 1 1 6 8 7 7 5 6 3 5 7 7 7 5 4 2
19 17 16 18 16 16 14 13 14 7 9 7 5 9 3 8 8 3 2 1 1 4 6 4 2 2 3 5 6 5 4 3 2 3 3 2 1 3 4 4 2 6 6 7 3 7 10 10 8 6 6 4 3 2
19 17 15 18 15 14 14 13 11 6 9 4 1 6 10 7 4 2 2 1 3 2 5 5 3 1 2 3 2 2 2 2 2 2 2 1 2 2 2 5 6 6 6 8 10 10 8 6 5 6 6 4 3 2
18 17 16 17 14 12 16 14 8 6 6 5 11 14 13 13 9 3 4 7 1 3 3 5 3 3 3 3 3 0 2 2 2 1 2 2 2 1 6 4 7 7 8 8 6 6 9 11 9 7 5 3 1 3
17 16 14 15 13 12 13 12 10 6 9 7 14 9 5 6 3 2 9 5 2 2 4 3 6 5 4 2 3 2 1 3 1 1 2 2 3 7 1 6 8 8 5 10 9 9 9 8 7 6 4 2 1 3
15 14 13 13 13 9 13 11 10 7 14 10 3 2 2 1 6 5 3 3 3 2 2 3 2 4 2 2 2 3 1 2 3 3 3 3 4 4 5 3 5 8 8 11 10 6 6 6 6 5 3 2 2 4
13 13 13 12 12 9 12 10 12 14 8 2 2 2 1 3 1 1 2 1 0 3 2 3 3 5 0 1 3 3 2 2 2 3 3 3 5 4 5 6 7 8 9 6 7 8 5 6 6 4 3 1 3 4
12 12 12 10 11 13 15 13 13 5 1 4 5 4 1 1 2 2 2 1 2 2 2 2 4 3 3 2 3 1 3 1 1 4 2 4 2 7 8 9 9 9 9 9 8 9 8 8 6 4 3 2 3 4
13 12 11 10 8 14 14 18 13 19 7 3 3 3 1 1 3 3 5 2 2 3 3 3 4 3 3 3 4 2 3 2 4 3 4 2 5 7 9 9 8 8 9 10 9 8 7 6 5 4 3 3 4 4
13 11 10 10 8 15 15 21 23 9 3 2 2 4 2 2 2 3 4 3 3 3 6 5 4 3 2 3 2 4 3 2 3 4 5 2 7 9 8 8 9 8 8 8 6 5 5 4 4 3 2 2 2 4
13 11 10 9 10 16 20 21 13 4 2 2 1 2 2 4 3 2 1 2 3 4 3 4 4 2 3 4 3 4 3 4 5 3 2 3 7 8 8 7 7 7 5 5 5 4 3 3 2 2 2 2 2 4
11 8 6 8 12 19 24 14 6 2 3 2 3 3 3 3 2 1 2 3 1 3 2 3 3 3 3 3 3 4 2 4 1 2 2 4 7 6 7 5 5 5 5 4 4 3 3 3 1 1 3 1 2 4
11 3 7 10 12 21 17 5 2 5 4 3 3 4 4 4 4 3 2 2 1 1 2 2 3 3 4 2 3 4 3 1 2 2 3 4 6 7 6 6 5 5 5 4 3 2 2 2 2 1 1 0 3 2
1 2 11 31 16 8 4 5 4 4 6 3 1 3 3 4 4 4 3 2 1 2 1 2 4 3 2 2 0 2 2 3 3 3 4 5 7 6 5 6 5 4 4 4 2 3 2 3 2 1 1 2 4 3
7 14 27 21 9 6 4 4 4 5 3 2 3 2 3 4 4 3 3 4 4 2 3 2 2 1 0 2 2 1 2 2 3 3 3 4 5 5 5 5 5 4 4 3 4 3 1 0 1 1 1 2 3 3
25 23 22 21 10 4 5 4 3 4 3 2 2 3 3 4 2 3 3 3 2 1 1 1 1 3 3 3 3 3 3 4 5 4 3 3 3 5 5 4 3 4 4 3 2 3 2 2 2 2 2 3 3 3
10 5 15 8 5 7 6 2 4 3 3 3 1 2 3 2 3 2 2 4 1 3 2 3 3 3 3 3 3 2 3 2 2 1 2 4 4 3 4 3 3 3 2 2 2 3 2 1 1 2 2 2 2 3
3 9 4 5 6 4 5 5 3 2 3 2 2 2 3 2 2 2 2 1 3 3 2 3 2 2 1 2 3 4 3 4 3 4 5 8 4 4 4 3 3 2 2 2 2 2 1 1 2 2 2 2 3 3
7 5 5 5 6 7 3 3 2 3 3 2 1 3 2 2 2 2 3 2 2 1 2 2 2 3 3 1 2 4 5 4 4 4 3 3 3 3 3 3 2 2 2 2 1 1 2 3 3 1 1 2 2 2
9 7 6 5 5 3 1 3 2 3 2 1 1 3 2 2 1 1 3 2 2 3 3 2 0 2 2 2 3 3 4 3 3 3 3 1 2 2 1 2 1 0 0 1 1 2 2 2 1 1 1 2 2 1
8 8 5 6 3 4 4 3 4 4 3 2 3 2 2 1 2 1 2 2 3 4 4 3 3 3 2 3 2 3 4 3 2 1 2 2 1 1 1 1 1 1 1 2 2 2 2 1 1 2 3 3 3 2
9 6 5 3 2 3 1 3 2 2 2 2 3 1 1 1 2 2 2 2 2 3 4 5 5 3 3 4 2 2 2 3 2 1 2 2 2 2 1 2 2 1 2 2 2 2 2 2 3 3 4 5 6 2
5 4 3 3 2 2 3 3 3 3 3 3 2 1 1 1 2 2 2 2 2 3 4 4 4 4 3 2 3 3 2 3 3 2 1 1 1 1 2 2 2 2 0 2 2 2 3 3 4 4 4 2 2 2
3 4 3 4 4 5 3 3 3 3 2 3 2 1 1 3 2 2 2 2 3 3 3 2 3 3 3 3 3 2 2 2 1 1 1 2 1 1 1 2 2 6 4 3 4 4 5 5 4 4 4 3 2 3
4 3 2 5 4 5 5 4 3 3 4 3 2 2 2 2 2 1 1 3 3 3 1 2 2 3 1 1 2 2 3 3 3 3 2 2 1 1 0 3 3 3 3 3 7 8 7 7 5 4 3 2 2 2
3 3 4 3 4 4 2 3 2 2 3 2 2 2 2 1 1 1 2 2 1 1 1 1 2 2 1 2 1 2 3 4 4 3 2 2 3 4 5 5 4 3 2 3 3 5 8 7 5 4 4 3 3 3
1 0 4 3 3 1 1 2 2 0 2 2 2 1 2 1 1 1 1 1 1 0 1 0 1 2 2 2 2 2 0 1 2 4 4 4 5 6 6 5 3 1 1 2 3 3 3 3 2 3 5 5 5 6
3 4 2 4 2 1 1 1 2 1 2 1 2 1 0 1 1 1 1 0 0 0 1 0 1 0 1 2 2 3 7 3 4 4 6 5 6 7 3 2 1 1 2 3 3 3 3 4 4 4 4 6 5 5
2 2 2 3 3 1 1 0 2 1 2 2 2 2 1 2 1 1 1 1 1 1 1 1 1 3 3 4 4 4 6 3 8 11 12 13 13 7 2 1 2 2 4 4 4 4 5 6 6 6 6 6 6 6
Wind_Direction
289 282 276 269 251 262 269 313 277 287 294 318 317 215 197 192 185 177 211 194 219 230 194 214 182 155 144 192 170 129 125 167 154 192 197 203 214 205 197 199 183 184 182 201 203 232 263 139 130 221 75 86 135 150
288 286 277 271 255 252 287 292 296 283 294 302 307 316 201 194 184 183 204 177 176 277 21 349 8 13 15 25 201 180 328 162 155 152 212 185 206 168 235 227 185 220 207 205 203 223 111 184 55 66 52 29 140 253
284 285 279 270 264 250 264 270 301 272 291 294 299 304 289 202 189 185 190 139 101 131 268 184 209 107 36 48 342 151 227 146 191 113 168 150 221 163 185 223 195 234 219 234 183 220 222 216 124 134 95 108 111 84
279 290 289 276 263 248 253 285 291 280 291 301 307 290 308 293 198 188 176 167 169 155 213 177 87 138 349 329 160 73 117 89 92 119 153 170 201 189 211 295 219 173 151 221 248 268 209 175 176 146 120 114 109 88
278 273 282 289 268 245 238 259 277 269 288 295 331 349 303 298 246 198 90 188 183 180 169 116 93 46 285 224 172 160 142 123 146 156 174 204 153 168 178 289 224 183 199 200 271 35 50 93 126 136 137 128 100 49
270 269 273 285 271 244 233 252 265 258 304 284 326 349 13 143 117 106 116 143 125 123 121 145 38 17 29 112 99 100 112 94 126 157 182 202 119 191 200 234 246 175 64 29 126 81 85 113 110 115 126 117 94 58
267 268 259 275 270 245 222 250 247 214 297 254 181 61 64 67 47 53 115 45 152 115 112 109 154 127 44 83 63 86 34 89 102 145 199 155 164 208 246 240 113 101 106 102 115 123 107 157 140 120 116 101 84 60
261 266 260 267 265 247 212 244 202 220 231 174 112 92 74 86 117 55 9 22 356 91 75 125 99 165 194 132 125 149 122 124 82 102 146 176 138 220 254 139 120 126 122 119 108 67 85 115 120 112 106 90 63 355
256 266 269 261 252 249 210 217 193 232 191 156 120 90 49 33 39 342 311 337 25 79 133 150 148 152 171 98 106 126 173 143 70 167 143 208 149 224 357 156 170 167 167 143 119 113 122 124 122 115 123 101 329 339
249 264 269 276 264 240 197 202 190 219 156 122 60 79 100 216 305 313 19 26 25 22 52 81 130 110 191 153 100 121 214 106 166 100 123 226 252 104 94 51 150 154 136 143 125 140 140 140 147 146 122 82 334 335
244 259 266 272 264 228 184 191 236 177 90 55 79 66 20 307 108 59 82 33 36 109 54 81 67 118 109 139 103 351 106 92 184 122 220 211 252 118 134 109 108 121 126 104 88 86 103 134 136 142 141 52 352 349
242 255 263 264 264 198 175 171 148 72 75 116 105 102 90 49 96 110 64 122 323 99 116 115 100 89 97 57 92 54 88 173 148 137 222 247 96 126 131 119 112 114 114 106 104 106 102 103 103 104 87 36 351 346
236 248 256 254 248 193 173 163 112 120 117 50 55 88 281 56 170 199 152 142 171 157 150 163 112 97 122 79 83 120 149 108 135 201 238 283 123 140 131 125 119 116 116 112 106 103 105 108 106 96 83 47 354 328
231 242 248 247 222 191 180 144 137 117 80 109 150 115 304 108 43 24 18 69 61 103 112 93 79 75 89 91 119 130 68 181 205 230 233 105 151 144 140 139 140 139 129 125 114 107 108 113 101 96 75 27 337 320
222 234 233 242 204 177 151 145 121 63 71 90 186 117 92 90 49 54 54 88 29 103 108 102 80 82 77 100 45 116 145 228 227 246 66 99 129 136 141 148 142 135 125 121 127 128 123 105 103 103 70 331 316 306
217 230 223 204 187 175 133 91 47 68 52 57 69 109 97 111 109 113 68 91 87 125 98 54 91 96 76 85 151 202 212 230 92 44 64 134 139 138 132 124 112 112 127 126 121 127 132 131 120 7 309 277 318 289
196 230 186 173 169 116 80 76 80 52 48 59 69 36 63 54 89 92 62 100 147 200 105 138 139 82 115 148 213 194 221 80 130 142 135 139 147 134 124 122 124 133 134 127 130 150 153 141 169 193 289 69 283 284
179 188 133 115 108 69 52 26 71 65 68 35 73 58 56 37 92 87 96 100 234 114 176 72 132 162 193 224 175 98 106 95 69 98 106 103 110 123 137 138 138 137 136 138 149 153 181 200 210 175 211 291 282 244
122 123 132 121 96 93 72 46 8 89 67 59 76 47 57 75 52 52 84 54 48 49 88 51 79 200 78 57 29 88 127 152 149 120 97 82 108 122 119 121 132 144 142 159 195 201 174 126 338 338 308 300 316 337
90 84 80 71 68 87 87 51 354 80 87 72 51 50 50 49 35 59 64 38 54 50 92 142 50 49 23 46 14 22 69 115 137 138 139 146 143 142 153 165 162 148 151 159 206 212 204 228 201 227 252 261 323 305
62 33 45 56 56 55 71 35 67 51 96 73 31 33 70 50 48 34 56 339 35 32 48 33 29 39 7 5 354 347 90 138 126 344 150 150 155 161 145 142 155 168 176 183 213 215 207 256 263 255 277 306 289 275
84 62 75 47 76 73 83 19 68 75 64 66 68 30 73 86 76 48 308 62 53 43 22 357 17 0 39 17 8 19 46 79 63 87 88 117 142 162 171 164 173 185 205 216 214 233 225 237 250 236 278 298 296 277
93 55 53 43 73 39 41 325 71 20 84 100 177 98 62 72 38 284 78 51 72 44 350 16 34 37 79 59 67 57 30 43 74 68 76 88 111 111 128 144 167 192 198 190 201 223 240 249 281 242 300 290 273 264
38 53 44 45 39 82 344 41 54 72 91 70 76 79 59 51 185 32 77 56 38 22 35 49 84 102 111 112 69 59 41 41 85 77 34 57 111 98 75 106 136 121 47 100 198 229 228 243 265 309 251 257 254 276
67 7 19 40 30 63 50 40 29 47 63 37 92 119 149 254 159 127 99 87 46 46 33 21 27 13 50 78 80 67 30 12 20 60 59 15 53 109 162 178 217 235 170 217 220 228 226 220 242 250 248 246 252 251
69 2 31 23 22 69 87 103 102 135 134 105 72 95 221 181 154 125 81 53 34 22 12 9 359 5 58 25 55 66 41 0 339 29 71 17 8 347 342 298 277 173 192 234 256 267 279 263 257 252 254 260 270 163
79 29 33 21 338 57 84 64 47 52 59 62 89 139 174 175 129 86 93 39 1 19 345 340 342 356 24 55 63 44 24 16 26 33 26 18 23 2 335 323 334 32 336 223 246 268 280 283 274 258 256 247 244 234
74 17 61 9 54 5 71 58 42 47 49 358 278 53 27 29 71 62 29 30 350 325 313 353 8 1 15 27 15 3 15 355 310 276 252 230 222 245 267 277 270 285 277 249 252 251 250 249 258 255 240 242 242 199
53 4 18 47 43 46 37 28 54 44 0 331 2 69 71 50 29 344 16 342 327 301 321 359 33 349 359 35 33 18 359 349 4 29 18 30 30 77 254 285 279 271 262 270 285 277 245 223 220 217 219 223 242 227
38 347 84 60 63 38 23 354 43 356 18 33 355 130 127 115 65 337 313 340 0 33 19 339 324 331 5 350 32 48 41 31 23 6 348 16 348 320 307 303 302 282 249 260 285 300 308 317 184 151 176 214 231 237
349 24 80 60 84 69 41 342 298 358 18 36 356 25 57 345 215 123 10 9 340 276 264 13 34 11 11 22 11 338 137 90 358 322 288 279 284 288 293 301 300 267 234 258 280 293 313 313 262 231 243 252 258 267
31 38 93 105 116 121 321 4 8 29 7 29 30 352 320 246 336 129 114 209 273 303 27 85 267 84 357 320 293 280 286 316 309 309 299 289 287 282 310 336 347 287 265 266 269 272 272 269 275 269 268 264 257 250
90 77 55 103 105 146 102 35 27 52 44 49 40 359 356 326 273 13 126 229 287 314 278 282 286 287 286 272 271 289 310 301 293 315 322 316 328 343 107 329 295 263 271 269 263 260 263 262 264 265 264 263 264 265